sat.trackr.live / text

‹ back to catalog

STARLINK-32223

NORAD 60373 · 2024-138U

PAYLOAD ACTIVE UNKNOWN

§ Identity

Operator
Country
US
Launch date
2024-08-04
Launch site
AFWTR
Launch vehicle
Mass (kg)
RCS (m²)

Purposes: comms

External: N2YO · Heavens-Above · Gunter

§ Orbital elements

Epoch: 2026-05-24T21:26:18.411360Z

Period
94.11 min
Inclination
53.1608°
Eccentricity
0.0000888
Mean motion
15.30194740 rev/d
Perigee alt
474.6 km
Apogee alt
475.8 km
Semi-major
6,853.4 km
B*
5.5917e-5
RAAN
315.7150°
Arg perigee
103.1326°
Mean anomaly
256.9774°
Rev number
10,219

§ Raw data

STARLINK-322231 60373U 24138U   26144.89326865  .00001297  00000+0  55917-4 0  99902 60373  53.1608 315.7150 0000888 103.1326 256.9774 15.30194740102193

JSON: /api/v1/satellites/60373 · /tle

For live sub-satellite position, see the globe view (requires WebGL).

§ Visibility from observer

Set your observer location to see the next 7 days of passes ≥ 10°. The values pass through the URL so the page stays shareable.

No JS? Fill the form by hand. The geolocation button needs JavaScript.